C/2024 T5 ( ATLAS )

Japanese version
Home page
Updated on November 26, 2024

---------------------------------------------------------------------

* Profile

Discovery Date October 2, 2024
Magnitude 19.2 mag
Discoverer Asteroid Terrestrial-Impact Last Alert System (ATLAS) search program

* Orbital Elements

Epoch 2024 Oct. 17.0 TT = JDT 2460600.5
T 2027 May 6.16867 TT                                   Rudenko
q   3.8466753            (2000.0)            P               Q
z  -0.0004429      Peri.  352.35794     -0.10415178     -0.61906722
 +/-0.0002785      Node   100.69336     +0.94926266     -0.29539016
e   1.0017039      Incl.   52.38758     +0.29673692     +0.72766780
From 120 observations 2024 Oct. 2-Nov. 11, mean residual 0".3.

* Finding Charts

* Magnitudes Graph

        m1 = 5.0 + 5 log d + 10.0 log r

---------------------------------------------------------------------

The orbital elements are published on M.P.E.C. 2024-V192.
The charts are made with StellaNavigator Ver.11 (AstroArts).
The magnitudes graphs are made with Comet for Windows.

---------------------------------------------------------------------

Copyright(C) Seiichi Yoshida (comet@aerith.net). All rights reserved.